Overview Statistics Trail Chart Weather Telemetry Raw packets
 

This is the latest recevied weather packets stored in our database for station/object 4S6DRJ-13. If no packets are shown the sender has not sent any weather packets the latest 10 day(s).

<< 39 40 41 42 43 44 45 >>
Time Temp. Humidity Pressure Rain* Wind** Luminosity Snow
1788388561 27.78° C 85% 1008.5 hPa 0 mm 0.45 m/s, 181° 0 W/m² -
1788388500 27.78° C 85% 1008.6 hPa 0 mm 2.68 m/s, 238° 0 W/m² -
1788388439 27.78° C 85% 1008.6 hPa 0 mm 2.68 m/s, 168° 0 W/m² -
1788388378 27.78° C 85% 1008.5 hPa 0 mm 1.79 m/s, 241° 0 W/m² -
1788388317 27.78° C 86% 1008.4 hPa 0 mm 2.24 m/s, 204° 0 W/m² -
1788388256 27.78° C 86% 1008.4 hPa 0 mm 1.34 m/s, 234° 0 W/m² -
1788388195 27.78° C 86% 1008.4 hPa 0 mm 1.34 m/s, 233° 0 W/m² -
1788388134 27.78° C 86% 1008.4 hPa 0 mm 0 m/s 0 W/m² -
1788388073 27.78° C 86% 1008.3 hPa 0 mm 0 m/s 0 W/m² -
1788388012 27.78° C 86% 1008.6 hPa 0 mm 0.45 m/s, 216° 0 W/m² -
1788387951 27.78° C 86% 1008.5 hPa 0 mm 0.45 m/s, 231° 0 W/m² -
1788387890 27.78° C 86% 1008.5 hPa 0 mm 1.79 m/s, 225° 0 W/m² -
1788387828 27.78° C 86% 1008.4 hPa 0 mm 0.45 m/s, 254° 0 W/m² -
1788387767 27.78° C 86% 1008.4 hPa 0 mm 0 m/s 0 W/m² -
1788387707 27.78° C 86% 1008.4 hPa 0 mm 0 m/s 0 W/m² -
1788387646 27.78° C 86% 1008.4 hPa 0 mm 1.79 m/s, 247° 0 W/m² -
1788387585 27.78° C 86% 1008.3 hPa 0 mm 1.34 m/s, 264° 0 W/m² -
1788387524 27.78° C 86% 1008.5 hPa 0 mm 0.89 m/s, 263° 0 W/m² -
1788387463 27.78° C 86% 1008.4 hPa 0 mm 0.45 m/s, 228° 0 W/m² -
1788387402 27.78° C 86% 1008.5 hPa 0 mm 0 m/s 0 W/m² -
1788387341 27.78° C 86% 1008.4 hPa 0 mm 0 m/s 0 W/m² -
1788387280 27.78° C 86% 1008.5 hPa 0 mm 0 m/s 0 W/m² -
1788387220 27.78° C 86% 1008.5 hPa 0 mm 0.45 m/s, 225° 0 W/m² -
1788387158 27.78° C 86% 1008.5 hPa 0 mm 0.89 m/s, 282° 0 W/m² -
1788387097 27.78° C 85% 1008.7 hPa 0 mm 0 m/s 0 W/m² -

* Rain latest hour (hover to see other rain measurements)
** Current wind speed in m/s (hover to see current wind gust speed)